Estación municipal de Queralbs (Ripollès, P.N.de les capçaleres del Ter i el Freser)

Consulta los datos en tiempo real de la estación municipal de Queralbs





Hora UTC 04:00
Temperatura 4.9 ºC
Humedad 96.6 %
Pluja 0.0 mm
Velocidad viento 1.5 km/h
Dirección viento NNW

Datos diarios 2026-05-10



Hora UTC (invierno +1h; verano +2h)
Temperatura (ºC) Humedad (%) Velocidad viento (km/h) Precipitación (mm)
Hora UTC Aire Humedad Vel. Dir. Vel. Max Dir. Intent. máx 5 min.
00:05 7.0 96.5 0.0 NNE 0.0 W 0.0
00:10 7.0 96.6 1.0 NNE 4.2 NNE 0.0
00:15 7.0 96.6 0.3 NNE 2.8 NE 0.0
00:20 7.0 96.7 0.0 NNE 0.0 NNE 0.0
00:25 7.0 96.8 0.0 ENE 1.1 ENE 0.0
00:30 7.0 96.7 2.3 SSE 4.2 SSE 0.0
00:35 7.0 96.6 0.3 SSE 1.8 SSE 0.0
00:40 7.0 96.6 0.0 NNE 0.0 ESE 0.0
00:45 6.9 96.7 0.1 NE 1.4 NE 0.0
00:50 6.9 96.7 0.7 S 3.2 S 0.0
00:55 6.9 96.7 0.0 S 1.4 SSW 0.0
01:00 6.8 96.6 0.0 NNE 0.0 NNW 0.0
01:05 6.7 96.4 0.0 NNE 0.0 0.0
01:10 6.5 96.3 0.2 WSW 1.8 WSW 0.0
01:15 6.4 96.5 0.2 W 1.8 W 0.0
01:20 6.4 96.6 0.0 ENE 1.1 ENE 0.0
01:25 6.3 96.5 1.1 N 3.2 NNE 0.0
01:30 6.3 96.8 0.7 NW 3.2 NNW 0.0
01:35 6.4 96.9 2.2 NNW 4.9 N 0.0
01:40 6.3 96.5 2.9 SW 6.4 SSW 0.0
01:45 6.1 96.4 3.4 W 6.7 W 0.0
01:50 6.1 96.2 1.0 ENE 4.6 N 0.0
01:55 5.9 96.5 1.6 N 4.9 N 0.0
02:00 5.8 96.4 2.7 NNW 5.6 N 0.0
02:05 5.8 96.8 3.0 NNW 6.4 NNW 0.0
02:10 5.9 96.8 1.2 NNW 2.8 N 0.0
02:15 5.8 96.4 1.2 WSW 3.2 WSW 0.0
02:20 5.7 96.5 2.4 W 6.4 W 0.0
02:25 5.8 97.0 4.3 WSW 7.1 W 0.0
02:30 5.9 96.8 2.6 W 4.9 SW 0.0
02:35 5.8 96.3 1.2 NW 4.2 WNW 0.0
02:40 5.6 96.0 2.1 N 4.9 0.0
02:45 5.4 96.2 2.3 N 3.9 NNW 0.0
02:50 5.4 96.7 2.2 NNW 4.2 NNE 0.0
02:55 5.4 96.6 3.1 W 6.4 WSW 0.0
03:00 5.5 97.0 5.2 W 10.2 WSW 0.0
03:05 5.7 96.6 3.3 W 6.4 WSW 0.0
03:10 5.8 96.4 1.8 SW 4.6 SSW 0.0
03:15 5.5 95.8 5.1 NNE 7.8 NE 0.0
03:20 5.4 96.1 2.6 NNW 4.6 N 0.0
03:25 5.2 96.0 2.1 WNW 3.9 WNW 0.0
03:30 5.0 96.4 0.9 NNW 3.2 WNW 0.0
03:35 5.0 96.6 0.8 NNW 2.8 SSW 0.0
03:40 5.1 96.9 1.7 NW 4.2 N 0.0
03:45 5.1 96.7 1.3 N 3.9 NNE 0.0
03:50 5.0 96.6 0.9 N 3.2 N 0.0
03:55 4.9 96.6 0.0 NNE 0.0 ENE 0.0
04:00 4.9 96.6 1.5 NNW 4.9 NNW 0.0
Máxima 7.0 97.0 5.2 W 10.2 WSW 0.0
Mínima 4.9 95.8
Total 0.0